User: anonymous   Login
Location: Bismarck
(46.7731°N, 100.8200°W)
Time: 16:12:33
(UTC-06:00)
Language:

Cosmos 1125 Rocket - Orbit

View from above orbital plane
View from above orbital plane
View from above satellite
View from above satellite

Ground track
Ground track

The orbit data is extracted from the following two-line orbital elements,

1 11511U 79078B   16337.46144422  .00000028  00000-0  18406-4 0  9990
2 11511  74.0363 316.8727 0016976 250.6666 109.2652 14.36743721950364
Epoch (UTC): 02 December 2016 11:04:28
Eccentricity: 0.0016976
inclination: 74.0363°
perigee height: 757 km
apogee height: 781 km
right ascension of ascending node: 316.8727°
argument of perigee: 250.6666°
revolutions per day: 14.36743721
mean anomaly at epoch: 109.2652°
orbit number at epoch: 95036

The dashed part of the orbit path shows where the satellite is in the earth's shadow,  

DLR